Theta_e
342 340 340 340 337 334 334 333 331 327 323 323 322 321 322 321 319 318 316 315 314 313 314 314 315 314 315 311 313 311 315 314 316 315 314 312 311 313 311 310 308 307 306
341 339 339 339 337 334 330 328 327 326 322 322 321 321 322 322 320 319 318 317 317 315 313 312 315 314 313 314 314 314 314 314 314 315 313 313 313 306 307 307 308 307 307
342 340 338 338 336 333 331 328 326 324 322 321 321 321 321 321 320 320 320 318 316 315 315 315 313 313 314 313 314 313 313 312 312 313 313 309 307 307 307 307 307 307 307
342 340 339 337 335 334 332 330 328 326 324 321 322 322 321 320 321 320 319 318 317 314 315 314 313 313 314 313 313 313 312 313 312 312 308 307 308 307 306 307 308 307 307
335 340 341 338 336 336 333 331 330 328 325 323 322 323 322 321 322 320 318 317 314 314 314 311 312 311 311 313 313 311 312 311 310 307 306 305 308 306 307 306 307 307 307
334 335 336 338 336 337 335 333 330 328 326 325 324 323 324 323 321 320 319 316 315 313 309 310 310 310 311 312 313 312 310 310 305 305 305 306 308 306 305 304 305 306 307
328 333 334 334 335 335 335 333 330 329 328 326 323 323 324 323 321 319 318 317 314 311 308 309 310 311 310 312 313 313 311 310 305 307 305 306 307 305 304 304 305 305 306
324 325 328 331 331 333 332 331 330 329 328 327 326 325 323 322 320 319 318 316 313 310 308 308 308 309 311 310 311 312 312 310 311 308 306 306 306 304 303 304 304 304 305
322 322 323 325 326 329 332 332 330 329 329 328 325 323 321 321 321 320 318 313 311 310 309 309 309 310 310 311 313 313 312 312 310 310 309 307 305 304 303 303 304 304 304
322 322 322 322 323 324 329 329 330 331 328 327 324 323 322 321 320 320 313 311 310 309 308 310 312 310 312 312 313 312 312 310 308 307 306 306 305 305 305 305 304 305 304
318 320 321 322 322 322 324 325 325 327 329 326 324 323 320 319 319 316 311 311 311 310 310 312 313 312 311 312 312 312 310 309 306 306 304 303 305 306 305 304 304 304 304
316 315 316 317 320 321 322 322 326 326 328 327 325 322 319 317 316 315 312 312 311 310 313 313 311 312 310 312 312 308 307 305 302 303 303 305 305 306 305 304 304 304 304
317 316 316 316 317 319 322 322 321 323 325 326 322 319 317 315 315 314 312 312 311 312 313 311 311 310 309 309 307 302 302 302 302 303 305 305 305 305 305 304 305 303 303
316 315 315 316 315 313 319 319 320 322 322 324 321 318 316 314 313 313 312 312 312 311 311 308 309 310 306 303 303 304 302 302 303 305 305 306 306 305 305 304 303 303 303
318 319 318 318 315 316 313 315 320 322 321 322 320 319 315 313 313 313 313 312 312 311 309 309 310 311 305 303 303 304 304 306 305 305 306 306 305 304 303 303 303 302 303
314 314 315 315 314 313 313 314 316 320 319 318 318 317 316 314 313 313 311 311 312 311 310 310 309 309 309 309 308 307 307 307 306 305 304 304 303 303 303 302 301 302 300
312 313 314 313 313 314 313 311 312 316 318 318 317 316 315 314 313 311 312 310 310 311 308 307 304 305 308 306 305 304 303 303 302 303 303 303 302 302 301 301 300 300 300
313 313 312 312 312 312 313 313 317 320 320 314 315 315 315 312 312 311 312 310 310 310 307 303 304 306 305 304 303 302 302 303 303 303 302 302 301 300 299 299 299 299 299
308 312 313 313 313 312 310 310 310 318 318 313 313 313 312 311 312 311 310 309 304 302 302 302 306 304 303 303 302 302 303 303 302 301 301 299 298 299 299 299 298 298 298
314 312 312 312 312 312 312 311 314 311 309 312 311 311 312 310 308 308 308 304 303 305 306 304 303 302 302 302 302 303 302 301 301 299 298 299 298 297 296 296 296 296 297
313 313 312 312 313 312 311 311 314 312 313 312 310 312 312 309 306 302 300 301 304 304 302 302 302 301 301 303 302 301 301 300 299 298 297 297 296 295 293 293 294 295 297
312 312 312 313 312 310 309 311 314 312 311 309 308 309 310 304 304 304 305 306 302 301 301 301 301 302 302 301 301 300 300 298 297 296 296 296 294 292 292 293 294 295 296
311 311 312 312 313 310 310 312 308 306 305 303 303 304 302 306 307 307 305 303 301 301 301 301 302 302 301 301 300 298 297 295 294 296 295 294 292 293 293 293 294 295 296
310 311 312 312 313 313 310 307 305 305 304 304 305 306 306 306 307 305 304 302 301 301 301 302 302 301 301 300 298 296 293 292 295 295 293 293 293 294 294 295 296 297 297
310 311 312 313 314 311 308 307 307 306 306 306 306 306 306 306 306 304 302 301 300 301 302 302 301 301 300 299 297 293 290 294 293 293 293 294 295 296 297 297 298 299 299
311 312 313 311 314 311 309 308 308 307 307 306 305 305 306 305 304 302 301 300 300 302 302 301 301 300 298 297 294 290 291 293 293 293 294 295 296 297 297 298 298 299 299
Wind_Speed
7 8 10 12 12 12 17 18 20 18 21 10 20 17 18 18 16 16 13 12 11 11 11 7 7 6 13 12 16 13 13 11 9 15 15 18 22 19 11 7 10 11 13
10 7 7 8 9 11 13 13 16 21 23 16 17 17 21 20 18 18 15 13 14 15 14 14 12 9 12 13 13 20 17 13 13 14 19 23 15 18 15 8 10 8 8
11 9 9 10 10 11 11 11 13 20 24 26 22 22 22 19 20 21 21 18 15 16 19 15 11 14 17 13 16 17 14 15 17 15 21 17 19 15 13 13 11 13 10
10 11 9 8 9 11 11 11 13 16 23 26 25 25 24 24 26 24 22 21 20 20 16 14 14 13 17 15 17 11 13 11 16 17 15 18 12 16 15 17 16 17 19
5 4 4 6 7 10 11 12 15 15 19 25 26 28 28 28 28 24 24 23 23 21 17 15 14 12 16 17 18 14 16 13 9 10 13 16 13 18 15 18 16 18 15
1 1 1 4 5 7 12 12 14 15 17 19 24 26 26 26 26 27 28 28 25 25 17 16 13 14 21 16 20 17 9 17 10 8 7 10 8 13 16 17 17 14 8
5 5 4 3 4 2 4 8 10 14 15 18 21 23 25 28 28 26 28 28 27 23 19 20 17 15 15 12 12 16 17 19 15 12 11 12 8 11 13 14 14 15 16
7 8 6 2 2 2 3 4 7 10 15 18 19 23 25 27 24 27 28 29 27 21 21 20 18 17 18 18 22 21 19 16 17 17 19 14 10 11 12 11 15 17 16
7 9 9 10 11 4 2 6 8 9 11 13 16 18 21 24 23 28 27 28 22 18 19 17 18 15 18 22 20 20 18 15 17 20 15 10 12 16 13 10 10 14 11
8 6 7 7 11 13 8 5 7 9 10 11 13 16 18 21 22 25 28 24 19 19 18 18 16 17 17 14 16 17 14 12 4 4 12 15 17 17 12 11 12 14 12
6 9 10 7 6 13 8 11 12 11 9 11 12 15 16 16 20 22 27 25 20 19 16 16 9 9 16 13 13 16 14 13 15 13 12 15 16 7 9 11 14 16 16
4 7 12 11 9 10 9 15 13 11 8 10 12 16 15 15 17 23 26 23 18 16 14 9 9 10 9 13 16 16 16 16 14 12 15 12 9 9 10 12 14 11 14
13 13 12 14 14 16 13 13 14 6 5 8 10 14 14 15 15 18 26 23 21 18 12 11 8 10 11 13 16 16 15 15 14 14 17 15 15 9 11 8 13 13 17
14 16 15 15 15 23 19 16 13 6 6 8 9 14 13 14 17 17 23 22 20 18 17 14 13 14 16 15 14 15 19 21 17 18 19 11 12 6 9 11 12 16 14
15 16 14 16 21 21 15 17 10 9 9 9 10 11 14 15 19 17 20 21 17 14 14 14 15 19 22 22 23 23 22 20 18 20 19 9 12 8 10 10 11 12 18
15 16 17 16 16 17 20 20 10 10 6 8 10 10 13 15 15 17 17 14 13 7 7 10 15 19 23 21 3 12 10 14 8 8 4 4 7 9 11 14 15 14 11
18 18 17 19 19 18 17 21 23 11 4 5 8 10 10 13 18 17 15 10 11 8 10 13 17 21 15 6 7 7 9 7 6 8 9 9 10 11 13 11 11 13 15
23 17 17 19 21 21 22 21 18 9 7 5 9 13 16 15 14 16 14 12 11 13 14 14 19 17 6 8 8 9 9 6 7 5 8 11 11 10 10 12 14 13 13
22 36 16 18 20 22 22 22 23 12 12 15 20 18 19 12 14 14 13 12 10 12 14 18 16 6 8 8 7 6 8 5 6 8 8 9 10 10 11 9 9 10 12
13 16 21 22 23 24 25 19 12 13 10 15 19 21 17 15 15 14 15 14 12 13 10 6 8 7 6 6 5 6 10 11 10 11 12 12 12 10 9 9 7 8 8
14 17 21 29 22 14 24 26 3 2 14 14 15 25 23 18 13 12 13 12 10 4 12 8 6 8 7 9 10 12 11 10 9 10 12 9 8 8 7 6 6 6 4
23 16 22 26 11 5 11 8 6 8 12 13 19 24 19 8 9 11 12 6 10 7 4 4 7 9 11 11 10 9 11 12 11 10 7 5 5 4 4 5 6 5 4
17 20 24 25 7 5 12 7 6 5 11 13 16 22 14 7 4 1 9 8 6 4 7 5 5 11 11 8 6 8 8 7 7 4 4 3 2 2 3 3 3 5 3
19 21 24 27 11 10 11 7 10 14 17 23 23 21 20 14 2 7 7 5 5 6 5 5 5 6 4 5 8 7 12 7 3 2 3 4 3 2 1 1 4 5 3
20 24 5 8 1 19 16 14 17 18 21 25 23 20 20 12 6 6 4 7 6 6 5 3 5 5 3 4 4 10 8 6 4 9 5 4 3 3 4 6 4 5 5
23 15 7 9 12 20 18 16 18 18 16 17 17 15 12 11 7 8 8 5 6 5 2 4 6 5 6 4 11 9 5 5 6 7 8 2 3 5 6 5 6 7 5
Wind_Direction
216 224 224 216 208 237 238 234 229 226 216 227 202 205 214 213 214 217 215 222 206 212 214 238 211 228 268 296 302 312 314 343 334 324 316 315 309 305 278 283 291 309 323
174 191 215 210 222 237 241 244 238 224 214 212 213 216 220 220 214 215 218 218 220 207 227 223 244 244 252 280 272 286 302 318 334 301 316 304 303 323 315 313 299 320 311
169 176 199 223 223 232 244 239 234 223 219 221 228 227 227 225 227 218 218 224 221 225 234 224 227 249 269 277 283 286 304 312 322 313 301 324 324 30 21 19 359 343 329
175 180 190 203 235 224 232 230 230 226 224 222 226 231 231 237 235 224 221 224 224 232 223 213 228 260 268 278 279 285 296 310 309 315 341 338 357 11 3 359 345 338 327
342 120 187 238 233 225 223 227 223 225 232 230 232 233 240 241 236 226 223 220 226 225 227 236 240 270 274 272 275 279 281 298 307 335 335 327 5 3 4 348 338 328 324
130 21 340 283 251 212 212 221 234 239 237 238 238 242 242 237 235 235 231 223 224 229 236 230 234 249 269 285 287 277 304 299 262 271 308 316 331 343 335 330 319 318 320
352 96 75 331 293 262 234 233 240 247 241 257 254 248 245 243 240 233 227 230 226 225 224 230 230 256 263 290 281 282 260 262 256 267 261 271 298 316 305 318 315 317 315
26 23 35 48 11 333 240 248 251 252 259 263 252 247 252 247 241 236 235 231 222 219 224 234 242 256 275 286 289 268 254 266 268 259 252 256 284 292 307 312 312 313 321
22 17 9 12 358 340 293 286 280 262 246 254 276 267 263 249 244 241 231 215 208 215 222 233 243 265 274 286 280 264 258 270 282 270 245 255 284 277 282 299 308 324 326
348 355 354 16 359 336 328 306 309 278 259 264 276 282 279 263 254 239 211 204 202 218 225 245 251 264 279 278 275 271 272 276 32 208 239 256 276 271 268 273 281 284 304
327 344 336 336 335 315 310 313 307 297 275 275 274 281 276 262 253 221 203 201 210 212 230 247 258 262 283 272 265 255 253 266 277 281 285 285 276 287 268 287 272 261 275
287 310 312 307 309 293 296 302 292 291 290 274 270 285 272 261 255 225 204 208 213 214 236 234 277 301 263 247 253 258 252 263 277 284 284 287 288 281 281 304 263 254 281
300 288 293 296 302 294 281 281 296 271 303 276 278 269 265 258 246 233 211 214 211 220 235 260 270 283 260 246 255 257 253 251 255 265 275 269 291 272 298 280 256 285 296
280 283 284 280 283 290 281 275 268 263 273 254 267 259 244 230 223 226 211 218 216 231 249 261 280 276 263 262 254 255 241 243 242 260 269 282 288 281 304 310 313 295 293
288 269 271 280 280 283 302 303 268 234 256 253 252 260 222 204 211 222 203 203 212 235 238 246 264 259 255 254 248 240 242 238 229 256 264 280 276 299 319 310 304 304 282
288 286 288 292 296 302 298 287 263 230 239 275 239 231 237 228 217 189 187 190 213 221 231 246 256 265 247 255 237 217 246 241 251 230 219 2 349 329 310 301 296 289 299
271 272 269 278 286 285 288 291 281 218 209 249 213 199 213 199 184 184 184 196 213 244 234 247 266 276 285 19 8 11 13 17 2 35 4 342 323 312 297 303 344 356 355
290 272 277 273 272 280 276 280 297 203 168 252 177 179 181 177 179 189 199 203 224 221 232 242 264 279 13 11 13 358 333 341 30 7 322 318 319 334 1 16 12 2 346
311 296 303 301 295 295 296 294 289 233 188 205 160 164 170 173 180 179 198 201 208 234 250 247 267 357 22 3 334 352 360 15 357 318 324 358 9 21 16 17 3 341 325
273 308 308 300 285 282 277 280 46 39 27 260 162 165 170 171 168 180 191 204 231 259 279 45 13 4 329 295 8 2 36 14 7 25 34 37 30 29 10 344 324 313 319
293 306 293 286 289 299 338 340 204 151 254 232 174 174 174 171 175 187 198 216 241 347 47 30 336 337 6 34 30 15 360 351 23 29 20 17 18 6 345 336 322 306 318
291 289 291 294 284 216 231 285 95 155 202 185 179 166 161 163 179 205 215 215 77 61 49 20 343 34 56 37 15 352 19 44 32 18 11 30 23 9 4 350 348 355 357
292 284 281 282 222 295 304 41 72 147 143 144 143 140 144 128 107 67 104 95 78 65 65 51 12 46 40 30 17 47 37 17 4 7 43 10 71 47 34 12 348 327 330
280 277 276 286 163 142 114 106 118 114 115 114 111 110 113 122 157 118 96 90 119 100 82 72 61 43 33 26 57 22 360 357 50 22 67 120 96 6 40 20 316 312 325
266 266 79 30 123 115 116 123 119 117 122 123 125 140 167 197 194 153 108 103 86 94 94 66 75 25 59 103 24 351 1 11 54 110 117 112 70 11 336 326 319 336 337
275 287 264 192 144 120 131 145 142 140 145 157 174 191 198 175 184 109 101 99 116 99 70 92 78 38 107 37 5 5 25 56 98 130 138 102 15 348 335 335 345 340 345